Find Starlink 35407

NORAD ID: 66334 Int'l Des: 2025-253 Owner: SPXS Country: US Constellation: starlink operational
LEOCIRCULAR

Current View

Loading 3D Globe...

About Starlink 35407

Description loading...

Upcoming Passes

Passes for default location (London). Set your location on the main map for personalized predictions.

Altitude History

Loading altitude history...

Two-Line Element Set

1 66334U 25253R 26146.01726376 .00014343 00000-0 52957-3 0 9996
2 66334 42.9948 135.5519 0000669 243.2173 116.8610 15.27587627 32077
Epoch: May 26, 2026 • Age: 14 hours

Current Status

Altitude 486.5 km
Velocity 7.63 km/s
Sub-Earth Point 42.84°N, 106°E
Launch Date Nov 6, 2025
Age 0.5 years
Type internet

Technical Details

Classification Payload
Mass 575.00 kg
Dry Mass 530.00 kg
Total Mass 575.00 kg
Length 0.30 m
Diameter 4.10 m
Span 29.00 m
Shape Box + pan
Manufacturer SPXS
Bus Type Starlink V2MO
Phase Status In Orbit
Owner/State SPXS/US

Most Searched